�N����,����,�~����,�C��,���x,�C��,����,���ϕ���,�ő�u�ԕ���,�ő厞����,���˗�,�I�_���x,�n�����x,�ő啗���N��,DTYPE
"19/08/23","00:10",0.0,25.5,90.9,1002.2,5.6,1.0,1.9,15.0,0.00,23.9,27.3,"00:02:00",1
"19/08/23","00:20",0.2,25.5,91.3,1001.7,341.1,0.5,1.8,352.5,0.00,24.0,27.3,"00:19:20",1
"19/08/23","00:30",0.0,25.5,91.4,1001.5,355.2,1.0,1.6,359.1,0.00,24.0,27.2,"00:20:40",1
"19/08/23","00:40",0.2,25.5,91.9,1001.5,5.8,0.7,1.6,1.7,0.00,24.1,27.3,"00:32:24",1
"19/08/23","00:50",0.2,25.5,92.2,1001.2,344.3,0.6,1.6,355.8,0.00,24.2,27.3,"00:41:04",1
"19/08/23","01:00",0.0,25.3,92.2,1001.0,294.2,0.2,0.8,228.3,0.00,24.0,27.2,"00:56:32",1
"19/08/23","01:10",0.0,25.4,92.5,1001.2,326.2,0.2,0.8,0.2,0.00,24.1,27.1,"01:07:32",1
"19/08/23","01:20",0.0,25.4,92.7,1001.2,344.4,0.6,1.1,340.8,0.00,24.2,27.2,"01:11:52",1
"19/08/23","01:30",0.0,25.4,92.8,1001.0,21.5,0.7,1.4,351.6,0.00,24.2,27.2,"01:20:48",1
"19/08/23","01:40",0.0,25.5,93.0,1001.2,22.9,0.5,1.6,355.5,0.00,24.3,27.3,"01:37:28",1
"19/08/23","01:50",0.4,25.6,93.0,1000.5,300.6,0.6,1.6,26.8,0.00,24.4,27.0,"01:41:36",1
"19/08/23","02:00",1.2,25.6,93.0,1000.5,3.8,0.7,1.4,346.1,0.00,24.4,27.1,"01:54:16",1
"19/08/23","02:10",0.4,25.7,93.3,1000.8,143.1,0.5,1.1,161.3,0.00,24.6,27.3,"02:08:32",1
"19/08/23","02:20",0.2,25.7,93.3,1000.5,3.5,0.5,2.0,348.7,0.00,24.6,27.1,"02:19:28",1
"19/08/23","02:30",0.0,25.7,93.4,1000.8,0.9,0.8,1.8,20.6,0.00,24.6,27.0,"02:27:20",1
"19/08/23","02:40",0.2,25.7,93.5,1000.5,351.5,0.8,1.8,351.1,0.00,24.6,27.1,"02:30:40",1
"19/08/23","02:50",0.0,25.7,93.7,1000.5,107.8,0.2,0.8,143.5,0.00,24.6,26.9,"02:46:08",1
"19/08/23","03:00",0.0,25.8,93.7,1000.3,2.9,0.3,1.1,55.2,0.00,24.7,27.1,"02:57:36",1
"19/08/23","03:10",0.0,25.7,93.9,1000.3,1.4,0.6,1.3,340.2,0.00,24.7,27.2,"03:02:32",1
"19/08/23","03:20",0.0,25.8,93.9,1000.5,254.8,0.5,1.2,229.0,0.00,24.8,26.9,"03:17:52",1
"19/08/23","03:30",0.0,25.8,93.9,1000.3,289.4,1.0,2.8,326.0,0.00,24.8,27.1,"03:25:28",1
"19/08/23","03:40",0.2,25.8,94.0,1000.3,2.6,0.8,1.4,18.2,0.00,24.8,26.8,"03:32:00",1
"19/08/23","03:50",0.6,25.7,93.8,1000.5,332.1,0.6,2.8,354.3,0.00,24.7,27.2,"03:49:52",1
"19/08/23","04:00",1.6,25.5,93.7,1000.5,298.2,1.2,2.2,316.2,0.00,24.4,27.1,"03:50:32",1
"19/08/23","04:10",0.0,25.4,93.7,1000.5,278.8,1.1,3.9,282.6,0.00,24.3,26.9,"04:09:04",1
"19/08/23","04:20",0.0,25.5,93.4,1000.5,287.7,1.1,4.3,201.4,0.00,24.4,26.8,"04:13:20",1
"19/08/23","04:30",0.0,25.4,93.3,1000.5,271.1,0.7,1.8,333.5,0.00,24.3,26.8,"04:29:28",1
"19/08/23","04:40",0.0,25.3,93.4,1000.3,284.6,0.7,1.8,318.9,0.00,24.2,26.9,"04:31:44",1
"19/08/23","04:50",0.0,25.4,93.1,1000.3,268.0,0.7,1.2,299.0,0.00,24.2,26.9,"04:41:20",1
"19/08/23","05:00",1.4,25.4,93.3,1000.5,324.8,0.6,1.4,353.7,0.00,24.3,26.9,"04:50:16",1
"19/08/23","05:10",0.4,25.2,93.3,1001.0,279.7,0.7,1.8,314.6,0.00,24.1,26.7,"05:09:04",1
"19/08/23","05:20",0.0,25.2,93.2,1000.3,256.5,1.2,4.9,255.1,0.00,24.1,26.7,"05:18:56",1
"19/08/23","05:30",0.0,25.2,92.8,1000.5,258.6,1.3,3.4,248.2,0.00,24.0,26.6,"05:29:28",1
"19/08/23","05:40",0.0,25.3,92.8,1000.5,315.2,1.1,3.9,332.5,0.00,24.1,26.8,"05:30:08",1
"19/08/23","05:50",0.0,25.2,92.8,1000.5,312.1,0.6,1.8,337.1,0.00,24.0,26.7,"05:49:20",1
"19/08/23","06:00",0.0,25.1,92.7,1001.0,302.5,1.2,4.5,329.3,0.00,23.9,26.8,"05:58:24",1
"19/08/23","06:10",0.0,25.2,92.5,1001.2,316.3,1.0,1.9,334.2,0.00,23.9,26.7,"06:00:02",1
"19/08/23","06:20",0.0,25.3,92.5,1001.0,330.8,1.3,3.3,309.4,0.00,24.0,26.6,"06:12:08",1
"19/08/23","06:30",0.0,25.3,92.4,1001.0,309.7,0.8,2.0,328.0,0.00,24.0,26.5,"06:20:24",1
"19/08/23","06:40",0.0,25.3,92.2,1001.0,305.0,0.8,2.0,340.3,0.00,24.0,26.5,"06:32:56",1
"19/08/23","06:50",0.0,25.4,92.2,1001.5,306.4,0.8,1.8,308.8,0.00,24.1,26.5,"06:46:08",1
"19/08/23","07:00",0.0,25.5,91.8,1001.7,307.5,0.7,1.4,343.3,0.02,24.1,26.7,"06:50:08",1
"19/08/23","07:10",0.0,25.7,91.9,1001.2,324.6,1.1,2.1,338.4,0.02,24.3,26.4,"07:06:16",1
"19/08/23","07:20",0.0,25.7,91.6,1001.5,329.9,1.0,1.7,340.3,0.01,24.3,26.6,"07:11:28",1
"19/08/23","07:30",0.0,25.9,91.9,1001.2,328.8,1.1,2.1,349.8,0.02,24.5,26.7,"07:22:56",1
"19/08/23","07:40",0.0,26.0,91.8,1001.2,335.5,1.1,1.8,331.5,0.05,24.6,26.6,"07:38:24",1
"19/08/23","07:50",0.0,26.1,90.9,1001.5,323.0,0.8,1.6,350.1,0.05,24.5,26.7,"07:40:32",1
"19/08/23","08:00",0.0,26.3,91.1,1001.5,237.0,0.3,1.1,246.6,0.04,24.8,26.8,"07:53:20",1
"19/08/23","08:10",0.0,26.3,91.0,1001.7,262.0,0.3,1.2,318.9,0.03,24.8,26.7,"08:00:02",1
"19/08/23","08:20",0.0,26.3,89.9,1001.9,316.7,1.0,1.4,322.4,0.02,24.5,26.7,"08:10:08",1
"19/08/23","08:30",0.0,26.6,90.2,1001.5,339.5,0.7,1.7,334.6,0.06,24.9,26.7,"08:26:08",1
"19/08/23","08:40",0.0,26.6,90.1,1001.9,352.3,0.8,1.8,344.0,0.06,24.9,27.0,"08:33:52",1
"19/08/23","08:50",0.0,26.9,90.0,1001.7,348.1,0.8,1.8,343.9,0.08,25.2,26.9,"08:46:16",1
"19/08/23","09:00",0.0,27.0,89.4,1001.5,355.7,0.7,1.6,1.0,0.08,25.1,27.0,"08:57:44",1
"19/08/23","09:10",0.0,27.0,89.0,1001.9,332.2,0.8,1.4,339.4,0.07,25.1,26.9,"09:04:56",1
"19/08/23","09:20",0.0,26.5,87.0,1001.9,345.3,1.2,2.9,10.5,0.09,24.2,26.9,"09:17:44",1
"19/08/23","09:30",0.0,25.7,85.0,1002.2,5.7,1.7,3.5,7.8,0.04,23.0,26.8,"09:28:56",1
"19/08/23","09:40",0.0,25.4,85.4,1002.2,359.9,1.6,3.2,8.9,0.03,22.8,27.1,"09:32:24",1
"19/08/23","09:50",0.2,25.3,86.0,1001.9,349.5,1.3,3.1,359.1,0.06,22.8,26.9,"09:46:08",1
"19/08/23","10:00",0.0,25.1,87.1,1001.7,324.2,1.5,2.9,342.8,0.04,22.8,27.0,"09:51:28",1
"19/08/23","10:10",0.0,25.0,87.3,1002.2,322.1,1.2,3.4,343.7,0.05,22.8,27.0,"10:09:04",1
"19/08/23","10:20",0.0,24.9,87.8,1002.4,307.2,1.2,4.2,351.0,0.03,22.8,26.8,"10:11:04",1
"19/08/23","10:30",0.0,25.0,87.6,1002.4,255.6,1.0,2.0,337.5,0.06,22.8,26.8,"10:24:16",1
"19/08/23","10:40",0.0,25.3,87.8,1002.2,179.5,0.5,1.6,208.5,0.07,23.2,27.0,"10:30:56",1
"19/08/23","10:50",0.0,25.3,86.3,1001.9,282.5,0.6,1.2,301.6,0.04,22.9,26.8,"10:42:08",1
"19/08/23","11:00",0.0,25.6,86.8,1002.2,310.3,0.7,1.6,345.7,0.04,23.3,26.8,"10:51:20",1
"19/08/23","11:10",0.0,25.4,86.7,1001.5,312.8,0.8,1.6,334.3,0.03,23.1,26.9,"11:02:32",1
"19/08/23","11:20",0.0,25.4,86.6,1001.7,269.3,0.5,1.2,263.2,0.02,23.0,26.8,"11:15:52",1
"19/08/23","11:30",2.0,25.0,87.5,1001.9,189.7,0.7,1.9,86.9,0.00,22.8,26.8,"11:26:26",1
"19/08/23","11:40",0.2,24.9,88.0,1002.4,11.3,1.1,2.5,344.4,0.00,22.8,27.0,"11:36:56",1
"19/08/23","11:50",0.0,24.7,89.5,1002.4,356.9,0.6,1.9,348.5,0.00,22.9,26.8,"11:42:56",1
"19/08/23","12:00",0.2,24.5,89.8,1002.6,312.7,0.2,1.0,277.7,0.00,22.8,26.6,"11:59:12",1
"19/08/23","12:10",0.2,24.5,90.2,1002.4,14.6,0.7,1.9,321.7,0.01,22.8,26.7,"12:05:36",1
"19/08/23","12:20",0.2,24.1,90.0,1002.6,304.8,0.5,1.4,340.6,0.04,22.4,26.7,"12:17:12",1
"19/08/23","12:30",0.0,24.3,90.3,1002.9,249.2,0.3,0.9,243.9,0.07,22.6,26.6,"12:26:24",1
"19/08/23","12:40",0.0,24.5,90.8,1002.6,272.8,0.3,0.9,249.4,0.06,22.9,26.7,"12:33:20",1
"19/08/23","12:50",0.0,24.3,90.5,1002.9,342.4,0.5,1.2,345.7,0.07,22.7,26.7,"12:44:32",1
"19/08/23","13:00",0.0,24.7,90.4,1002.6,341.8,0.8,1.9,346.1,0.08,23.1,26.5,"12:58:40",1
"19/08/23","13:10",0.0,24.7,90.2,1002.6,325.3,0.6,1.3,346.0,0.06,23.0,26.7,"13:06:48",1
"19/08/23","13:20",0.0,24.7,90.1,1002.6,294.0,0.3,0.9,266.1,0.05,23.0,26.6,"13:15:20",1
"19/08/23","13:30",0.0,24.9,90.7,1002.6,326.7,0.6,1.3,335.8,0.05,23.3,26.7,"13:25:44",1
"19/08/23","13:40",0.2,24.7,90.2,1002.6,17.9,0.6,1.6,340.2,0.04,23.0,26.6,"13:30:24",1
"19/08/23","13:50",0.4,24.7,90.5,1002.2,194.3,0.3,0.9,315.5,0.04,23.1,26.8,"13:40:16",1
"19/08/23","14:00",1.4,24.7,90.5,1002.6,159.2,0.6,1.7,172.6,0.05,23.1,26.5,"13:57:04",1
"19/08/23","14:10",3.2,24.4,90.9,1002.4,108.0,0.3,1.1,76.2,0.01,22.9,26.5,"14:04:00",1
"19/08/23","14:20",4.4,24.0,91.5,1002.9,39.6,0.3,1.0,103.1,0.00,22.6,26.6,"14:11:04",1
"19/08/23","14:30",1.2,23.8,91.8,1002.4,16.6,0.3,1.3,359.8,0.00,22.4,26.2,"14:20:56",1
"19/08/23","14:40",0.0,24.0,92.4,1002.6,359.5,0.5,1.3,330.7,0.03,22.7,26.4,"14:37:52",1
"19/08/23","14:50",0.0,24.0,92.3,1002.6,62.7,0.2,0.9,138.1,0.03,22.7,26.4,"14:46:16",1
"19/08/23","15:00",0.0,24.0,92.3,1002.4,85.5,0.5,1.6,34.9,0.07,22.7,26.4,"14:58:16",1
"19/08/23","15:10",0.0,24.1,92.3,1002.2,107.9,0.5,1.2,105.8,0.07,22.8,26.3,"15:02:08",1
"19/08/23","15:20",0.0,24.0,92.5,1002.2,162.4,0.6,1.6,182.8,0.05,22.7,26.4,"15:15:28",1
"19/08/23","15:30",0.0,24.0,92.5,1002.4,353.4,0.7,1.9,7.4,0.01,22.7,26.4,"15:26:48",1
"19/08/23","15:40",1.2,23.9,92.9,1002.4,320.5,0.7,1.9,351.4,0.00,22.7,26.4,"15:39:52",1
"19/08/23","15:50",4.8,23.5,92.8,1002.6,319.8,1.1,2.5,330.7,0.00,22.3,26.2,"15:42:16",1
"19/08/23","16:00",4.8,23.3,93.5,1002.4,288.1,0.5,1.3,342.2,0.00,22.2,26.0,"15:50:40",1
"19/08/23","16:10",1.6,23.3,93.4,1002.6,269.0,0.7,1.6,232.4,0.00,22.2,26.1,"16:05:04",1
"19/08/23","16:20",1.2,23.2,93.8,1002.4,237.6,0.6,1.3,218.6,0.01,22.2,26.2,"16:18:00",1
"19/08/23","16:30",0.8,23.4,93.8,1002.6,274.5,0.2,0.8,337.3,0.04,22.4,26.0,"16:22:32",1
"19/08/23","16:40",0.4,23.4,93.6,1002.4,294.2,0.6,1.6,304.4,0.03,22.3,26.0,"16:39:36",1
"19/08/23","16:50",0.0,23.5,93.9,1002.4,306.3,0.6,1.1,327.4,0.03,22.5,26.0,"16:42:40",1
"19/08/23","17:00",0.0,23.4,94.1,1002.6,296.1,0.7,1.9,335.0,0.00,22.4,26.0,"16:50:48",1
"19/08/23","17:10",0.0,23.4,94.3,1002.6,288.8,0.5,1.1,310.3,0.00,22.5,26.0,"17:00:40",1
"19/08/23","17:20",0.0,23.4,94.3,1002.9,312.3,0.5,1.1,356.4,0.00,22.5,26.1,"17:17:36",1
"19/08/23","17:30",0.0,23.4,94.4,1002.6,298.7,0.3,1.0,352.9,0.00,22.5,26.0,"17:21:04",1
"19/08/23","17:40",0.0,23.5,94.3,1002.9,174.4,0.6,1.1,223.1,0.00,22.6,25.9,"17:30:56",1
"19/08/23","17:50",0.0,23.4,94.0,1003.1,170.1,0.6,2.0,218.5,0.00,22.4,26.0,"17:42:24",1
"19/08/23","18:00",0.0,23.3,94.5,1003.1,165.8,0.2,0.8,133.9,0.00,22.4,26.1,"17:52:32",1
"19/08/23","18:10",0.2,23.5,94.6,1003.1,348.4,0.6,1.6,346.7,0.00,22.6,26.1,"18:07:04",1
"19/08/23","18:20",0.8,23.5,94.4,1003.4,325.7,0.8,1.6,314.1,0.00,22.6,25.8,"18:17:12",1
"19/08/23","18:30",0.6,23.3,94.4,1003.1,290.3,0.5,1.0,328.1,0.00,22.4,26.0,"18:21:12",1
"19/08/23","18:40",0.0,23.3,94.6,1003.4,337.8,0.3,1.0,352.8,0.00,22.4,25.9,"18:35:36",1
"19/08/23","18:50",0.4,23.3,94.9,1003.8,287.1,0.3,0.6,333.1,0.00,22.5,25.8,"18:41:36",1
"19/08/23","19:00",0.6,23.3,94.8,1003.6,320.8,0.2,0.6,312.4,0.00,22.5,26.0,"18:50:08",1
"19/08/23","19:10",0.4,23.2,94.9,1004.1,308.0,0.3,0.8,336.7,0.00,22.4,26.0,"19:00:48",1
"19/08/23","19:20",0.6,23.2,95.1,1004.1,302.3,0.3,0.6,329.0,0.00,22.4,25.8,"19:14:48",1
"19/08/23","19:30",0.4,23.3,95.1,1004.1,344.8,0.5,1.4,356.6,0.00,22.5,25.9,"19:25:28",1
"19/08/23","19:40",0.8,23.2,95.0,1004.1,345.1,0.5,1.4,349.9,0.00,22.4,25.8,"19:36:50",1
"19/08/23","19:50",0.6,23.0,95.1,1004.5,309.3,0.3,1.1,0.6,0.00,22.2,25.8,"19:49:20",1
"19/08/23","20:00",0.0,23.0,95.3,1004.5,336.0,0.7,1.4,351.4,0.00,22.2,25.9,"19:50:24",1
"19/08/23","20:10",0.2,23.0,95.4,1004.3,280.2,0.3,0.8,320.7,0.00,22.3,25.8,"20:03:52",1
"19/08/23","20:20",0.2,23.0,95.3,1004.8,298.7,0.5,1.1,338.1,0.00,22.2,25.9,"20:19:44",1
"19/08/23","20:30",0.0,23.1,95.5,1004.5,325.4,0.7,1.1,337.1,0.00,22.4,25.8,"20:20:08",1
"19/08/23","20:40",0.0,23.1,95.5,1005.0,347.6,0.3,1.0,341.4,0.00,22.4,25.7,"20:30:16",1
"19/08/23","20:50",0.0,23.0,95.5,1004.8,351.6,0.2,0.9,325.8,0.00,22.3,25.9,"20:49:44",1
"19/08/23","21:00",0.0,23.0,95.4,1005.0,329.9,0.7,1.2,338.4,0.00,22.3,25.7,"20:51:12",1
"19/08/23","21:10",0.0,23.0,95.6,1005.0,315.6,0.6,0.9,315.8,0.00,22.3,25.7,"21:04:56",1
"19/08/23","21:20",0.0,23.0,95.6,1005.0,290.2,0.5,0.6,306.4,0.00,22.3,25.5,"21:12:48",1
"19/08/23","21:30",0.0,22.9,95.7,1004.8,284.7,0.5,1.1,327.7,0.00,22.2,25.6,"21:28:48",1
"19/08/23","21:40",0.4,22.9,95.6,1004.8,321.2,0.7,1.3,349.1,0.00,22.2,25.6,"21:33:44",1
"19/08/23","21:50",0.4,22.9,95.8,1005.0,315.2,0.7,1.7,342.7,0.00,22.2,25.7,"21:43:04",1
"19/08/23","22:00",0.8,22.9,95.7,1005.0,274.1,0.3,0.6,312.9,0.00,22.2,25.5,"21:50:08",1
"19/08/23","22:10",0.4,22.9,95.9,1004.5,287.9,0.2,0.6,308.0,0.00,22.3,25.6,"22:01:44",1
"19/08/23","22:20",0.6,22.9,96.0,1004.5,287.4,0.1,0.4,249.0,0.00,22.3,25.6,"22:11:20",1
"19/08/23","22:30",0.4,22.9,95.9,1004.5,297.1,0.3,0.5,261.7,0.00,22.3,25.7,"22:23:28",1
"19/08/23","22:40",0.4,22.9,96.0,1004.5,275.1,0.2,0.6,328.4,0.00,22.3,25.5,"22:30:48",1
"19/08/23","22:50",0.2,22.9,96.0,1004.3,302.4,0.3,0.9,323.7,0.00,22.3,25.6,"22:46:32",1
"19/08/23","23:00",0.0,22.8,96.0,1004.3,330.6,0.7,1.1,333.1,0.00,22.2,25.4,"22:53:12",1
"19/08/23","23:10",0.0,22.8,96.1,1004.5,268.5,0.2,0.8,308.4,0.00,22.2,25.5,"23:00:24",1
"19/08/23","23:20",0.0,22.9,96.2,1004.5,240.9,0.1,0.6,235.8,0.00,22.3,25.4,"23:16:48",1
"19/08/23","23:30",0.2,22.8,96.1,1004.8,315.2,0.6,1.0,338.4,0.00,22.2,25.5,"23:29:12",1
"19/08/23","23:40",0.0,22.8,96.1,1004.8,340.5,0.7,1.2,331.1,0.00,22.2,25.5,"23:30:16",1
"19/08/23","23:50",0.0,22.9,96.2,1005.0,338.1,0.5,1.3,339.6,0.00,22.3,25.5,"23:43:36",1
"19/08/23","24:00",0.0,22.8,96.2,1004.8,325.3,0.5,0.9,336.5,0.00,22.2,25.6,"23:51:28",1
